www.pogodaiklimat.ru

Погода и климат >> Архив погоды >> Россия >> Якутия >> Нюрба


ПОГОДА в Нюрбе

  • Прогноз погоды в Нюрбе
  • Монитор погоды в Нюрбе
  • Климат города

АРХИВ ПОГОДЫ в Нюрбе

Время (UTC), дата Ветер
(напр.,м/с)
 
Видим.   Явления Облачность Т
(С)
Тd
(С)
f
(%)
Тe
(С)
Тes
(С)
Комфортность P
(гПа)
Po
(гПа)
Тmin
(С)
Tmax
(С)
R
(мм)
R24
(мм)
S
(см)
18 19.06 З 1 50 км 10/0
[Ac trans Ci fib]
+13.9 +9.4 74 +14 +14 1010.5 996.3
21 19.06 ЮЗ 3 50 км 10/0
[Ac und]
+16.1 +9.4 64 +16 +16 1010.4 996.3
00 20.06 З 4 50 км 10/4 600 м
[Sc Ac und]
+18.7 +10.5 59 +19 +20 1009.5 995.6 +11.9
03 20.06 ЮЗ 3 50 км в посл. час дождь 10/4 600 м
[Sc Ac und]
+20.1 +10.8 55 +24 +26 комфорт 1008.6 994.7
06 20.06 ЮЗ 6-11
{12}
50 км {дождь} 6/0
[Ac trans Ci fib]
+26.6 +10.6 37 +27 +31 жарко 1006.4 992.9
09 20.06 ЮЗ 4
{11}
50 км 6/3 600 м
[Sc Ac trans Ci fib]
+28.8 +10.0 31 +29 +31 жарко 1005.0 991.6
12 20.06 З 4
{10}
50 км 10/5 600 м
[Cb cap Ac trans Ci fib]
+26.4 +11.8 40 +28 +28 жарко 1005.1 991.6 +30.0 0.0
15 20.06 З 1 20 км 8/0
[Ac trans Ci fib]
+19.4 +13.0 66 +22 +22 комфорт 1006.0 992.2
18 20.06 штиль 0 50 км 5/0
[Ci fib]
+12.8 +11.7 93 +12 +12 1006.7 992.5
21 20.06 В 1 50 км 3/0
[Ci fib]
+14.5 +13.2 92 +15 +16 1006.6 992.5
00 21.06 ЮЗ 3 50 км 4/0
[Ac trans]
+24.1 +14.5 55 +27 +31 жарко 1005.9 992.3 +11.7
03 21.06 ЮЗ 3 50 км 5/0
[Ac trans Ci fib]
+29.7 +13.9 38 +31 +40 жарко 1004.7 991.3
06 21.06 З 3
{12}
50 км 5/4 1000 м
[Cu hum Ci fib]
+32.6 +8.0 22 +31 +37 жарко 1003.0 989.7
09 21.06 З 4 50 км 5/4 1000 м
[Cu hum Ci fib]
+33.5 +7.6 20 +32 +34 жарко 1001.9 988.7
12 21.06 З 2 50 км 4/3 1000 м
[Cu hum Ci fib]
+30.5 +11.9 32 +31 +32 жарко 1001.8 988.5 +33.9
15 21.06 З 1 50 км 3/0
[Ci fib]
+21.2 +13.2 60 +24 +24 комфорт 1002.2 988.5
18 21.06 З 2 50 км 3/0
[Ci fib]
+18.3 +11.0 62 +19 +19 1003.2 989.3
21 21.06 З 2 50 км 4/0
[Ci fib]
+18.8 +12.4 66 +20 +21 1003.1 989.3
00 22.06 ЮЗ 3 50 км 5/0
[Ci fib]
+25.3 +13.3 47 +27 +32 жарко 1003.1 989.6 +17.5
03 22.06 З 4 20 км 4/0
[Ci fib]
+31.1 +13.5 34 +32 +40 жарко 1002.3 989.0
06 22.06 З 4 20 км 4/0
[Ci fib]
+33.9 +11.1 25 +33 +41 жарко 1001.0 987.8
09 22.06 З 4 10 км 4/0
[Ci fib]
+34.1 +10.6 24 +33 +37 жарко 999.8 986.7
12 22.06 ЮЗ 1 10 км 4/0
[Ci fib]
+28.7 +13.4 39 +30 +31 жарко 999.2 985.9 +34.5
15 22.06 ЮЗ 2 10 км 3/0
[Ci fib]
+23.2 +12.7 52 +26 +26 жарко 999.6 986.0
18 22.06 ЮЗ 2 10 км 3/0
[Ci fib]
+19.6 +12.3 63 +22 +22 комфорт 999.4 985.7
21 22.06 ЮЗ 2 10 км 3/0
[Ci fib]
+19.6 +12.9 65 +22 +23 комфорт 998.8 985.1
00 23.06 ЮЗ 3 10 км 5/0
[Ci fib]
+23.9 +14.7 56 +27 +32 жарко 998.3 984.7 +17.3
03 23.06 ЮЗ 3 10 км 10/0
[Ac trans Ci fib]
+25.6 +15.4 53 +29 +34 душно 998.7 985.2
06 23.06 ЮЗ 4 20 км 4/0
[Ci fib]
+30.6 +15.9 41 +33 +41 душно 998.1 984.9
09 23.06 З 6
{11}
20 км 8/3 600 м
[Cu hum Ci fib]
+31.4 +9.8 26 +31 +32 жарко 998.1 984.9
12 23.06 СЗ 3 50 км 6/0
[Ci fib]
+27.2 +11.5 38 +28 +29 жарко 1000.5 987.1 +32.1
15 23.06 З 1 50 км 4/0
[Ci fib]
+17.1 +11.8 71 +18 +18 1002.6 988.7
18 23.06 СЗ 1 50 км 3/0
[Ci fib]
+15.9 +12.3 79 +17 +17 1004.6 990.6
21 23.06 СЗ 2 50 км 10/10 480 м
[St]
+15.4 +11.7 79 +15 +15 1007.5 993.4
00 24.06 С 3 50 км 10/10 540 м
[St]
+12.4 +8.4 77 +11 +11 1009.8 995.5 +11.5
03 24.06 С 3 50 км 10/10 570 м
[St]
+13.2 +8.1 71 +12 +12 1011.3 997.1
06 24.06 СВ 2 50 км 10/10 720 м
[Sc]
+15.5 +8.9 65 +15 +15 1011.7 997.6
09 24.06 СВ 3 50 км 1/1 600 м
[Sc]
+18.0 +9.7 58 +18 +22 1011.3 997.3
12 24.06 СВ 3 50 км 10/0
[Ci fib]
+17.8 +9.4 58 +18 +18 1011.5 997.5 +19.0
15 24.06 СВ 2 50 км 10/0
[Ac trans Ci fib]
+9.9 +7.4 84 +8 +8 1012.5 998.1
18 24.06 штиль 0 50 км 10/0
[Ac trans Ci fib]
+7.6 +6.5 93 +7 +7 1013.3 998.8
21 24.06 С 1 50 км 3/0
[Ci fib]
+10.3 +7.6 83 +10 +11 1013.5 999.2
00 25.06 СВ 3 50 км 3/0
[Ci fib]
+16.3 +4.1 44 +16 +21 1013.8 999.7 +5.9
03 25.06 СВ 4 50 км 10/0
[Ci fib]
+20.5 +4.8 36 +21 +28 комфорт 1012.3 998.3
06 25.06 СВ 4 50 км 10/0
[Ci fib]
+24.0 +8.0 36 +24 +31 комфорт 1009.4 995.7
09 25.06 В 4 50 км 10/4 600 м
[Cb cap Cs]
+25.9 +6.1 28 +25 +27 комфорт 1008.4 994.8
12 25.06 СВ 3 50 км 10/4 600 м
[Cb cap As op]
+22.5 +7.6 38 +23 +24 комфорт 1007.6 993.8 +25.9
15 25.06 СВ 2 50 км 10/4 600 м
[Cb cap As op]
+19.2 +8.6 50 +21 +21 комфорт 1006.8 992.9
18 25.06 СВ 2 50 км 10/5 600 м
[Sc As trans]
+17.6 +8.9 57 +18 +18 1006.8 992.8
21 25.06 В 3 50 км 10/5 600 м
[Sc As op]
+18.4 +9.8 57 +19 +19 1005.0 991.1
00 26.06 СВ 3 50 км 10/5 600 м
[Sc As op]
+19.9 +10.5 55 +22 +22 комфорт 1003.6 989.8 +16.4
03 26.06 СВ 4 50 км {ливн. осадки} 10/5 600 м
[Cb cap As op]
+21.1 +13.4 61 +23 +24 комфорт 1001.3 987.6
06 26.06 В 4
{10}
20 км слабый ливневой дождь, в посл. час гроза 10/8 500 м
[Cb cap Ac und]
+17.5 +15.3 87 +17 +18 999.8 986.0
09 26.06 В 5
{13}
20 км слабый ливневой дождь, в посл. час гроза 10/8 480 м
[Cb cap As op]
+18.3 +16.3 88 +18 +19 1000.7 987.0
12 26.06 В 3 50 км {гроза, ливн. осадки} 10/3 600 м
[Sc As op]
+18.4 +16.9 91 +19 +19 999.9 986.2 +21.1 24
15 26.06 ЮВ 2 50 км в посл. час гроза {ливн. осадки} 10/4 600 м
[Cb cap As op]
+17.9 +17.1 95 +18 +18 999.5 985.8

 

Местоположение метеостанции Нюрба (Якутия, Россия): широта 63.28 долгота 118.30 высота над уровнем моря 119 м.

В архиве по умолчанию представлена погода в Нюрбе за последнюю неделю. Архивные данные за месяц целиком и за предыдущие месяцы, начиная с января 2011 года, Вы можете получить, выбрав интересующий диапазон дат из раскрывающегося списка и нажав кнопку "Ввод!".

Внимание! Время в таблицах - всемирное. Для получения местного времени необходимо прибавить поправку, которая в Нюрбе равна 9 ч.

Смотрите также архив погоды в соседних городах и на ближайших метеорологических станциях:

Погода в Верхневилюйске (Якутия, Россия) (97 км)
Погода в Чумпуруке (Якутия, Россия) (126 км)
Погода в Сунтаре (Якутия, Россия) (129 км)
Погода в Крестяхе (Якутия, Россия) (159 км)
Погода в Вилюйске (Якутия, Россия) (172 км)
Погода в Мирном (Якутия, Россия) (243 км)
Погода в Килиере (Якутия, Россия) (264 км)
Погода в Дорожном (Якутия, Россия) (265 км)
Погода в Чернышевском (Якутия, Россия) (298 км)
Погода в Эйке (Якутия, Россия) (309 км)

Пояснения к столбцам:

Ветер - указаны скорость ветра в м/с - средняя за 10 мин, порывы в срок и между сроками (в фигурных скобках) и направление, откуда дует ветер: С - северный, СВ - северо-восточный, В - восточный, ЮВ - юго-восточный, Ю - южный, ЮЗ - юго-западный, З - западный, СЗ - северо-западный.
Видимость - горизонтальная дальность видимости в метрах или километрах. При видимости от 1 до 10 км при отсутствии осадков обычно наблюдается дымка, при ухудшении видимости до 1 км и менее - туман. В сухую погоду видимость может ухудшаться дымом, пылью или мглою.
Явления - указаны атмосферные явления, наблюдавшиеся в срок или в последний час перед сроком; фигурными скобками обозначены явления, наблюдавшиеся между сроками (за 1-3 часа до срока); квадратными скобками обозначены град или гололедные отложения с указанием их диаметра в мм.
Облачность - указаны через наклонную черту общая и нижняя облачность в баллах и высота нижней границы облаков в метрах; квадратными скобками обозначены формы облаков: Ci - перистые, Cs - перисто-слоистые, Cc - перисто-кучевые, Ac - высококучевые, As - высокослоистые, Sc - слоисто-кучевые, Ns - слоисто-дождевые, Cu - кучевые, Cb - кучево-дождевые. Подробнее классификацию облаков см. в Атласе облаков (PDF).
T - Температура воздуха - температура, измеренная на высоте 2 м над землей.
Td - Температура точки росы - температура, при понижении до которой содержащийся в воздухе водяной пар достигнет насыщения.
f - Относительная влажность воздуха - влажноcть воздуха, измеренная на высоте 2 м над землей.
Te - Эффективная температура - температура, которую ощущает одетый по сезону человек в тени. Характеристика душности погоды. При расчете учитывается влияние влажности воздуха и скорости ветра на теплоощущения человека.
Tes - Эффективная температура на солнце - температура, которую ощущает человек, с поправкой на солнечный нагрев. Характеристика знойности погоды. Зависит от высоты солнца над горизонтом, облачности и скорости ветра. Ночью, в пасмурную погоду, а также при ветре 12 м/с и более поправка равна нулю.
P - Атмосферное давление - приведенное к уровню моря атмосферное давление.
Po - Атмосферное давление - измеренное на уровне метеостанции атмосферное давление.
Tmin - Минимальная температура - минимум температуры воздуха на высоте 2 м над землей.
Tmax - Максимальная температура - максимум температуры воздуха на высоте 2 м над землей.
R - Количество осадков - Количество выпавших осадков за период времени, мм. При наведении курсора мыши на число - период времени, за который выпало указанное количество осадков.
R24 - Количество осадков - Количество выпавших осадков за 24 часа, мм.
S - Снежный покров - Высота снежного покрова, см. При наведении курсора мыши на число - состояние снежного покрова и степень покрытия местности в баллах.